FW6919 Weather Reports


time (UTC)temp
C
wind
direction
speed
KPH
gust
KPH
rain 1hr
cm
rain 24hr
cm
rain mn
cm
humidity
%
barometer
mb
20260906230824 36 132 11.3 22.5 0.00 0.00 0.00 45 1011.6
20260906230324 36 127 11.3 22.5 0.00 0.00 0.00 44 1011.6
20260906225822 36 158 9.7 20.9 0.00 0.00 0.00 45 1011.5
20260906225324 36 165 3.2 16.1 0.00 0.00 0.00 45 1011.6
20260906224823 36 154 9.7 16.1 0.00 0.00 0.00 44 1011.7
20260906224322 36 136 4.8 16.1 0.00 0.00 0.00 44 1011.5
20260906223824 36 77 3.2 17.7 0.00 0.00 0.00 44 1011.6
20260906223322 36 148 6.4 20.9 0.00 0.00 0.00 43 1011.6
20260906222823 36 117 16.1 25.7 0.00 0.00 0.00 44 1011.8
20260906222323 36 160 9.7 25.7 0.00 0.00 0.00 45 1011.8
20260906221822 36 186 14.5 24.1 0.00 0.00 0.00 45 1011.8
20260906221324 37 124 8.0 19.3 0.00 0.00 0.00 44 1011.8
20260906220823 37 55 6.4 19.3 0.00 0.00 0.00 44 1011.8
20260906220320 37 84 3.2 25.7 0.00 0.00 0.00 44 1011.8
20260906215820 36 73 16.1 25.7 0.00 0.00 0.00 46 1011.8
20260906215320 36 173 3.2 17.7 0.00 0.00 0.00 45 1011.9
20260906214819 36 162 8.0 12.9 0.00 0.00 0.00 46 1012.0
20260906214318 36 51 11.3 12.9 0.00 0.00 0.00 45 1012.0
20260906213819 36 113 6.4 20.9 0.00 0.00 0.00 45 1012.2
20260906213319 36 94 1.6 20.9 0.00 0.00 0.00 45 1012.3
20260906212819 36 151 12.9 17.7 0.00 0.00 0.00 45 1012.3
20260906212318 36 125 4.8 22.5 0.00 0.00 0.00 46 1012.3
20260906211817 36 111 6.4 22.5 0.00 0.00 0.00 45 1012.4
20260906211317 37 99 19.3 17.7 0.00 0.00 0.00 46 1012.4
20260906210817 36 83 8.0 19.3 0.00 0.00 0.00 45 1012.6
20260906210316 36 138 3.2 19.3 0.00 0.00 0.00 46 1012.6
20260906205817 36 138 16.1 19.3 0.00 0.00 0.00 46 1012.6
20260906205316 36 101 12.9 22.5 0.00 0.00 0.00 46 1012.7
20260906204815 36 142 6.4 22.5 0.00 0.00 0.00 46 1012.7
20260906204316 36 71 4.8 17.7 0.00 0.00 0.00 46 1012.8
20260906203816 36 135 8.0 17.7 0.00 0.00 0.00 47 1012.8
20260906203313 36 94 6.4 17.7 0.00 0.00 0.00 47 1013.0
20260906202813 36 148 12.9 16.1 0.00 0.00 0.00 46 1013.0
20260906202315 36 159 8.0 19.3 0.00 0.00 0.00 46 1013.0
20260906201813 36 148 12.9 19.3 0.00 0.00 0.00 47 1013.1
20260906201315 36 147 6.4 24.1 0.00 0.00 0.00 47 1013.0
20260906200813 36 145 3.2 24.1 0.00 0.00 0.00 46 1013.2
20260906200314 36 116 14.5 24.1 0.00 0.00 0.00 47 1013.3
20260906195814 36 126 6.4 20.9 0.00 0.00 0.00 47 1013.3
20260906195311 36 150 8.0 22.5 0.00 0.00 0.00 48 1013.4
20260906194813 35 112 12.9 22.5 0.00 0.00 0.00 48 1013.4
20260906194312 36 139 8.0 25.7 0.00 0.00 0.00 48 1013.4
20260906193818 35 134 6.4 25.7 0.00 0.00 0.00 48 1013.5
20260906193313 36 132 12.9 22.5 0.00 0.00 0.00 48 1013.4
20260906192814 35 67 4.8 20.9 0.00 0.00 0.00 49 1013.6
20260906192313 35 126 16.1 20.9 0.00 0.00 0.00 49 1013.6
20260906191815 35 134 6.4 22.5 0.00 0.00 0.00 49 1013.7
20260906191314 35 160 16.1 22.5 0.00 0.00 0.00 50 1013.9
20260906190815 35 139 14.5 22.5 0.00 0.00 0.00 50 1013.9
20260906190312 35 116 3.2 22.5 0.00 0.00 0.00 50 1014.0
20260906185813 35 83 4.8 20.9 0.00 0.00 0.00 50 1013.9
20260906185314 35 145 3.2 19.3 0.00 0.00 0.00 53 1014.0
20260906184812 35 78 6.4 20.9 0.00 0.00 0.00 53 1014.1
20260906184312 35 122 14.5 20.9 0.00 0.00 0.00 52 1014.1
20260906183813 35 235 1.6 24.1 0.00 0.00 0.00 53 1014.2
20260906183312 35 68 12.9 24.1 0.00 0.00 0.00 52 1014.2
20260906182811 35 67 12.9 19.3 0.00 0.00 0.00 52 1014.3
20260906182311 34 79 8.0 19.3 0.00 0.00 0.00 54 1014.4
20260906181811 35 130 4.8 19.3 0.00 0.00 0.00 52 1014.4
20260906181313 35 97 6.4 22.5 0.00 0.00 0.00 53 1014.5
20260906180810 35 181 6.4 24.1 0.00 0.00 0.00 52 1014.6
20260906180312 34 180 17.7 24.1 0.00 0.00 0.00 53 1014.6
20260906175812 35 135 12.9 22.5 0.00 0.00 0.00 55 1014.7
20260906175314 34 89 8.0 22.5 0.00 0.00 0.00 54 1014.8
20260906174812 34 175 14.5 19.3 0.00 0.00 0.00 54 1014.9
20260906174312 34 227 9.7 17.7 0.00 0.00 0.00 54 1014.8
20260906173811 34 61 6.4 17.7 0.00 0.00 0.00 54 1015.0
20260906173312 34 136 12.9 16.1 0.00 0.00 0.00 55 1015.2
20260906172814 33 160 3.2 19.3 0.00 0.00 0.00 56 1015.1
20260906172305 33 154 11.3 19.3 0.00 0.00 0.00 57 1015.2
20260906171759 33 107 9.7 19.3 0.00 0.00 0.00 55 1015.4
20260906171300 34 126 4.8 14.5 0.00 0.00 0.00 56 1015.4
20260906170758 33 171 8.0 17.7 0.00 0.00 0.00 57 1015.4
20260906170258 33 207 8.0 17.7 0.00 0.00 0.00 57 1015.4
20260906165756 33 150 3.2 17.7 0.00 0.00 0.00 57 1015.6
20260906165258 33 55 11.3 17.7 0.00 0.00 0.00 57 1015.5
20260906164645 33 85 1.6 14.5 0.00 0.00 0.00 58 1015.8
20260906164153 33 76 11.3 17.7 0.00 0.00 0.00 59 1015.8
20260906163547 33 157 12.9 17.7 0.00 0.00 0.00 59 1015.8
20260906163052 33 113 6.4 16.1 0.00 0.00 0.00 59 1015.7
20260906162447 33 96 3.2 16.1 0.00 0.00 0.00 60 1015.7
20260906161951 32 110 6.4 14.5 0.00 0.00 0.00 61 1015.8
20260906161544 32 145 1.6 12.9 0.00 0.00 0.00 61 1015.8
20260906161039 32 177 3.2 16.1 0.00 0.00 0.00 63 1015.7
20260906160543 32 210 8.0 16.1 0.00 0.00 0.00 63 1015.7
20260906160045 32 120 11.3 12.9 0.00 0.00 0.00 63 1015.7
20260906155552 32 225 4.8 12.9 0.00 0.00 0.00 64 1015.8
20260906154949 32 162 8.0 11.3 0.00 0.00 0.00 65 1015.8
20260906154352 32 88 4.8 11.3 0.00 0.00 0.00 65 1015.7
20260906153759 31 219 4.8 12.9 0.00 0.00 0.00 66 1015.7
20260906153320 31 136 8.0 12.9 0.00 0.00 0.00 67 1015.7
20260906152839 31 127 3.2 12.9 0.00 0.00 0.00 67 1015.5
20260906152251 31 143 8.0 12.9 0.00 0.00 0.00 69 1015.5
20260906151703 31 127 3.2 12.9 0.00 0.00 0.00 69 1015.5
20260906151228 31 128 1.6 11.3 0.00 0.00 0.00 68 1015.3
20260906150646 31 99 1.6 9.7 0.00 0.00 0.00 68 1015.4
20260906150058 31 106 3.2 9.7 0.00 0.00 0.00 69 1015.3
20260906145619 30 123 3.2 9.7 0.00 0.00 0.00 70 1015.2
20260906145142 30 132 3.2 9.7 0.00 0.00 0.00 71 1015.2
20260906144605 30 126 4.8 9.7 0.00 0.00 0.00 71 1015.3
20260906144133 30 107 6.4 6.4 0.00 0.00 0.00 72 1015.2
20260906143555 30 134 1.6 8.0 0.00 0.00 0.00 73 1015.2
20260906143125 29 132 3.2 8.0 0.00 0.00 0.00 73 1015.3
20260906142545 29 142 6.4 6.4 0.00 0.00 0.00 73 1015.3
20260906141957 29 117 4.8 9.7 0.00 0.00 0.00 74 1015.3
20260906141526 29 115 3.2 9.7 0.00 0.00 0.00 73 1015.3
20260906140954 29 89 4.8 9.7 0.00 0.00 0.00 74 1015.3
20260906140528 29 55 6.4 9.7 0.00 0.00 0.00 73 1015.2
20260906135955 28 49 4.8 9.7 0.00 0.00 0.00 75 1015.3
20260906135535 28 49 4.8 6.4 0.00 0.00 0.00 76 1015.3
20260906135014 28 49 3.2 6.4 0.00 0.00 0.00 76 1015.3
20260906134454 28 128 4.8 4.8 0.00 0.00 0.00 78 1015.2
20260906134039 27 131 1.6 8.0 0.00 0.00 0.00 78 1015.2
20260906133523 27 132 1.6 11.3 0.00 0.00 0.00 79 1015.2
20260906133016 27 132 4.8 11.3 0.00 0.00 0.00 79 1015.2
20260906132458 27 163 3.2 8.0 0.00 0.00 0.00 81 1015.2
20260906131946 27 167 4.8 8.0 0.00 0.00 0.00 81 1015.3
20260906131542 27 168 1.6 8.0 0.00 0.00 0.00 82 1015.2
20260906131028 26 169 3.2 6.4 0.00 0.00 0.00 82 1015.3
20260906130514 26 169 3.2 6.4 0.00 0.00 0.00 83 1015.2
20260906125954 26 169 1.6 3.2 0.00 0.00 0.00 84 1015.2
20260906125444 26 169 1.6 3.2 0.00 0.00 0.00 85 1015.2
20260906124931 26 0 0.0 4.8 0.00 0.00 0.00 85 1015.1
20260906124425 25 35 3.2 4.8 0.00 0.00 0.00 86 1015.0
20260906123922 25 34 3.2 4.8 0.00 0.00 0.00 86 1015.1
20260906123413 25 30 1.6 3.2 0.00 0.00 0.00 86 1014.9
20260906122913 25 27 1.6 3.2 0.00 0.00 0.00 85 1015.0
20260906122416 25 0 0.0 3.2 0.00 0.00 0.00 85 1014.8
20260906121913 25 26 3.2 3.2 0.00 0.00 0.00 85 1014.8
20260906121413 25 0 0.0 3.2 0.00 0.00 0.00 85 1014.7
20260906120904 25 0 0.0 3.2 0.00 0.00 0.00 85 1014.6
20260906120405 25 27 1.6 3.2 0.00 0.00 0.00 85 1014.6
20260906115904 25 0 0.0 0.0 0.00 0.00 0.00 85 1014.5
20260906115402 25 0 0.0 0.0 0.00 0.00 0.00 85 1014.6
20260906114900 25 0 0.0 0.0 0.00 0.00 0.00 85 1014.4
20260906114402 25 0 0.0 0.0 0.00 0.00 0.00 85 1014.4
20260906113902 25 0 0.0 0.0 0.00 0.00 0.00 84 1014.2
20260906113402 25 0 0.0 0.0 0.00 0.00 0.00 85 1014.2
20260906112900 25 0 0.0 0.0 0.00 0.00 0.00 84 1014.4
20260906112402 25 0 0.0 0.0 0.00 0.00 0.00 84 1014.2
20260906111859 25 0 0.0 0.0 0.00 0.00 0.00 84 1014.2
20260906111359 25 0 0.0 3.2 0.00 0.00 0.00 84 1014.1
20260906110859 26 0 0.0 4.8 0.00 0.00 0.00 84 1014.1
20260906110400 26 0 0.0 4.8 0.00 0.00 0.00 84 1014.2
20260906105902 26 22 1.6 4.8 0.00 0.00 0.00 83 1014.1
20260906105359 26 22 1.6 6.4 0.00 0.00 0.00 83 1014.1
20260906104859 26 21 1.6 6.4 0.00 0.00 0.00 83 1014.0
20260906104400 26 20 3.2 6.4 0.00 0.00 0.00 83 1014.0
20260906103859 26 0 0.0 3.2 0.00 0.00 0.00 83 1014.1
20260906103402 26 0 0.0 3.2 0.00 0.00 0.00 82 1014.1
20260906102858 26 22 1.6 3.2 0.00 0.00 0.00 82 1014.1
20260906102356 26 22 1.6 3.2 0.00 0.00 0.00 81 1013.9
20260906101857 26 22 1.6 1.6 0.00 0.00 0.00 80 1013.9
20260906101357 26 0 0.0 0.0 0.00 0.00 0.00 80 1013.9
20260906100855 26 0 0.0 1.6 0.00 0.00 0.00 80 1013.9
20260906100356 26 0 0.0 1.6 0.00 0.00 0.00 80 1013.8
20260906095855 26 0 0.0 3.2 0.00 0.00 0.00 80 1013.8
20260906095355 26 0 0.0 3.2 0.00 0.00 0.00 79 1013.7
20260906094854 27 0 0.0 3.2 0.00 0.00 0.00 79 1013.7
20260906094355 27 0 0.0 3.2 0.00 0.00 0.00 79 1013.7
20260906093853 27 169 1.6 3.2 0.00 0.00 0.00 78 1013.6
20260906093353 27 0 0.0 3.2 0.00 0.00 0.00 78 1013.6
20260906092855 27 169 1.6 3.2 0.00 0.00 0.00 78 1013.4
20260906092353 27 170 3.2 3.2 0.00 0.00 0.00 78 1013.4
20260906091851 27 170 1.6 6.4 0.00 0.00 0.00 78 1013.3
20260906091353 27 170 1.6 8.0 0.00 0.00 0.00 78 1013.4
20260906090851 27 170 3.2 8.0 0.00 0.00 0.00 78 1013.4
20260906090352 27 170 3.2 6.4 0.00 0.00 0.00 77 1013.3
20260906085852 27 170 6.4 8.0 0.00 0.00 0.00 77 1013.3
20260906085352 27 171 1.6 9.7 0.00 0.00 0.00 76 1013.3
20260906084851 27 173 1.6 9.7 0.00 0.00 0.00 76 1013.3
20260906084351 27 176 3.2 6.4 0.00 0.00 0.00 76 1013.4
20260906083848 27 180 1.6 8.0 0.00 0.00 0.00 76 1013.3
20260906083351 27 182 3.2 8.0 0.00 0.00 0.00 76 1013.3
20260906082850 28 198 3.2 9.7 0.00 0.00 0.00 75 1013.4
20260906082349 28 188 3.2 12.9 0.00 0.00 0.00 75 1013.4
20260906081849 28 178 4.8 12.9 0.00 0.00 0.00 75 1013.4
20260906081348 28 172 8.0 11.3 0.00 0.00 0.00 75 1013.3
20260906080849 28 205 6.4 12.9 0.00 0.00 0.00 74 1013.3
20260906080348 28 223 4.8 12.9 0.00 0.00 0.00 74 1013.2
20260906075849 28 218 6.4 12.9 0.00 0.00 0.00 74 1013.3
20260906075348 28 221 8.0 12.9 0.00 0.00 0.00 74 1013.3
20260906074848 28 216 8.0 8.0 0.00 0.00 0.00 74 1013.5
20260906074347 28 214 4.8 12.9 0.00 0.00 0.00 74 1013.6
20260906073848 28 233 6.4 12.9 0.00 0.00 0.00 74 1013.6
20260906073345 28 164 6.4 16.1 0.00 0.00 0.00 74 1013.6
20260906072846 28 200 3.2 16.1 0.00 0.00 0.00 73 1013.7
20260906072345 28 188 4.8 16.1 0.00 0.00 0.00 73 1013.7
20260906071945 28 141 11.3 12.9 0.00 0.00 0.00 74 1013.7
20260906071446 28 191 4.8 12.9 0.00 0.00 0.00 73 1013.6
20260906070951 28 180 8.0 9.7 0.00 0.00 0.00 74 1013.7
20260906070451 28 182 4.8 12.9 0.00 0.00 0.00 74 1013.6
20260906070046 28 182 4.8 12.9 0.00 0.00 0.00 74 1013.6
20260906065644 28 184 4.8 12.9 0.00 0.00 0.00 74 1013.6
20260906065144 28 199 4.8 11.3 0.00 0.00 0.00 74 1013.7
20260906064642 28 174 4.8 11.3 0.00 0.00 0.00 74 1013.9
20260906064144 28 187 4.8 11.3 0.00 0.00 0.00 73 1013.8
20260906063643 28 192 6.4 8.0 0.00 0.00 0.00 73 1013.7
20260906063144 28 205 4.8 9.7 0.00 0.00 0.00 73 1013.7
20260906062643 28 209 3.2 9.7 0.00 0.00 0.00 73 1013.8
20260906062143 28 193 4.8 9.7 0.00 0.00 0.00 73 1013.7
20260906061642 28 194 1.6 9.7 0.00 0.00 0.00 73 1013.7
20260906061141 28 173 8.0 8.0 0.00 0.00 0.00 73 1013.6
20260906060641 28 169 3.2 8.0 0.00 0.00 0.00 73 1013.8
20260906060141 29 169 3.2 8.0 0.00 0.00 0.00 73 1013.8
20260906055641 29 0 0.0 8.0 0.00 0.00 0.00 72 1013.9
20260906055140 29 169 6.4 8.0 0.00 0.00 0.00 72 1013.9
20260906054640 29 169 3.2 9.7 0.00 0.00 0.00 72 1013.8
20260906054140 29 169 1.6 9.7 0.00 0.00 0.00 71 1013.8
20260906053639 29 175 3.2 8.0 0.00 0.00 0.00 71 1013.7
20260906053141 29 172 3.2 9.7 0.00 0.00 0.00 71 1013.7
20260906052638 30 173 4.8 9.7 0.00 0.00 0.00 70 1013.8
20260906052140 30 180 6.4 11.3 0.00 0.00 0.00 70 1013.7
20260906051637 30 167 4.8 11.3 0.00 0.00 0.00 70 1014.0
20260906051140 30 158 3.2 11.3 0.00 0.00 0.00 69 1013.9
20260906050638 30 172 3.2 11.3 0.00 0.00 0.00 69 1014.0
20260906050138 30 166 4.8 11.3 0.00 0.00 0.00 69 1013.9
20260906045636 30 169 3.2 9.7 0.00 0.00 0.00 69 1013.9
20260906045137 30 163 3.2 9.7 0.00 0.00 0.00 68 1013.9
20260906044635 30 161 6.4 9.7 0.00 0.00 0.00 68 1014.0
20260906044137 30 167 4.8 9.7 0.00 0.00 0.00 68 1013.9
20260906043634 30 166 4.8 9.7 0.00 0.00 0.00 67 1013.9
20260906043136 30 163 3.2 11.3 0.00 0.00 0.00 67 1013.7
20260906042635 30 146 3.2 11.3 0.00 0.00 0.00 67 1013.5
20260906042135 30 185 4.8 11.3 0.00 0.00 0.00 67 1013.6
20260906041635 30 173 8.0 16.1 0.00 0.00 0.00 66 1013.6
20260906041134 30 163 6.4 16.1 0.00 0.00 0.00 66 1013.6
20260906040634 30 172 9.7 14.5 0.00 0.00 0.00 66 1013.7
20260906040133 30 158 4.8 14.5 0.00 0.00 0.00 65 1013.6
20260906035632 31 168 9.7 16.1 0.00 0.00 0.00 65 1013.5
20260906035133 31 168 6.4 17.7 0.00 0.00 0.00 65 1013.7
20260906034633 31 165 6.4 19.3 0.00 0.00 0.00 65 1013.7
20260906034132 31 201 6.4 19.3 0.00 0.00 0.00 64 1013.7
20260906033632 31 188 8.0 17.7 0.00 0.00 0.00 64 1013.7
20260906033131 31 184 4.8 16.1 0.00 0.00 0.00 64 1013.7
20260906032632 31 145 14.5 16.1 0.00 0.00 0.00 64 1013.8
20260906032131 31 148 9.7 16.1 0.00 0.00 0.00 63 1013.8
20260906031632 31 175 9.7 16.1 0.00 0.00 0.00 63 1013.8
20260906031130 31 142 4.8 16.1 0.00 0.00 0.00 63 1013.7
20260906030631 31 153 4.8 14.5 0.00 0.00 0.00 63 1013.7
20260906030131 31 165 9.7 16.1 0.00 0.00 0.00 62 1013.7
20260906025632 31 144 4.8 17.7 0.00 0.00 0.00 62 1013.8
20260906025130 31 162 12.9 20.9 0.00 0.00 0.00 61 1013.7
20260906024630 31 188 6.4 20.9 0.00 0.00 0.00 61 1013.6
20260906024129 31 148 4.8 20.9 0.00 0.00 0.00 61 1013.4
20260906023628 31 221 14.5 25.7 0.00 0.00 0.00 60 1013.4
20260906023130 32 176 11.3 25.7 0.00 0.00 0.00 60 1013.3
20260906022629 32 173 16.1 22.5 0.00 0.00 0.00 60 1013.2
20260906022129 32 165 8.0 22.5 0.00 0.00 0.00 60 1013.2
20260906021629 32 169 9.7 22.5 0.00 0.00 0.00 59 1013.1
20260906021129 32 143 20.9 19.3 0.00 0.00 0.00 59 1013.0
20260906020630 32 161 6.4 19.3 0.00 0.00 0.00 59 1012.9
20260906020130 32 140 11.3 17.7 0.00 0.00 0.00 58 1012.8
20260906015628 32 146 4.8 25.7 0.00 0.00 0.00 58 1012.8
20260906015127 32 113 11.3 25.7 0.00 0.00 0.00 57 1012.6
20260906014628 32 195 8.0 24.1 0.00 0.00 0.00 57 1012.5
20260906014128 33 26 8.0 24.1 0.00 0.00 0.00 56 1012.4
20260906013629 33 155 9.7 24.1 0.00 0.00 0.00 55 1012.3
20260906013129 33 128 16.1 24.1 0.00 0.00 0.00 54 1012.3
20260906012627 33 156 11.3 27.4 0.00 0.00 0.00 53 1012.1
20260906012128 34 136 12.9 27.4 0.00 0.00 0.00 52 1011.9
20260906011626 34 131 4.8 9.7 0.00 0.00 0.00 49 1011.8
20260906011126 34 114 4.8 9.7 0.00 0.00 0.00 49 1011.7
20260906010626 34 114 3.2 9.7 0.00 0.00 0.00 48 1011.7
20260906010126 34 105 4.8 9.7 0.00 0.00 0.00 48 1011.7
20260906005625 35 105 1.6 11.3 0.00 0.00 0.00 48 1011.8
20260906005126 35 112 3.2 11.3 0.00 0.00 0.00 47 1011.6
20260906004625 35 120 6.4 11.3 0.00 0.00 0.00 47 1011.7
20260906004125 35 119 1.6 17.7 0.00 0.00 0.00 47 1011.7
20260906003624 35 118 9.7 17.7 0.00 0.00 0.00 46 1011.6
20260906003126 35 142 16.1 17.7 0.00 0.00 0.00 46 1011.6
20260906002624 35 126 12.9 16.1 0.00 0.00 0.00 45 1011.6
20260906002125 35 113 4.8 11.3 0.00 0.00 0.00 45 1011.5
20260906001624 35 110 9.7 11.3 0.00 0.00 0.00 45 1011.7
20260906001128 36 105 4.8 11.3 0.00 0.00 0.00 44 1011.6
20260906000623 36 93 6.4 14.5 0.00 0.00 0.00 44 1011.5
20260906000124 36 103 6.4 14.5 0.00 0.00 0.00 44 1011.5
20260905235622 36 81 11.3 14.5 0.00 0.00 0.00 45 1011.5
20260905235123 36 88 6.4 14.5 0.00 0.00 0.00 45 1011.4
20260905234623 36 177 3.2 11.3 0.00 0.00 0.00 44 1011.4
20260905234123 36 155 9.7 14.5 0.00 0.00 0.00 44 1011.4
20260905233623 36 115 3.2 14.5 0.00 0.00 0.00 44 1011.5
20260905233122 36 112 11.3 14.5 0.00 0.00 0.00 43 1011.4
20260905232622 36 81 3.2 14.5 0.00 0.00 0.00 44 1011.4
20260905232123 36 115 6.4 14.5 0.00 0.00 0.00 43 1011.4
20260905231622 36 66 3.2 12.9 0.00 0.00 0.00 44 1011.5